Tracking 19125 objects as of 19-Apr-2018
HD Live streaming from Space Station
objects crossing your sky now

GONETS D1M 1

Track GONETS D1M 1 now!
10-day predictions
GONETS D1M 1 is classified as:


NORAD ID: 28909
Int'l Code: 2005-048B
Perigee: 1,444.5 km
Apogee: 1,455.7 km
Inclination: 82.5 °
Period: 114.7 minutes
Semi major axis: 7821 km
RCS: 1.6605 m2 (large)
Launch date: December 21, 2005
Source: Commonwealth of Independent States (former USSR) (CIS)
Launch site: PLESETSK MISSILE AND SPACE COMPLEX (PKMTR)
aabbcc
Your satellite tracking list
Your tracking list is empty




NASA's NSSDC Master Catalog

Two Line Element Set (TLE):
1 28909U 05048B   18108.78989684 +.00000017 +00000-0 +42009-4 0  9999
2 28909 082.4704 055.5181 0007130 345.9988 014.0900 12.55171115564634
Source of the keplerian elements: AFSPC